Home   Weather   St. Louis   Past weeks
Flag for USA

Past Weather in St. Louis, Missouri, USA — Yesterday and Last 2 Weeks

Now
85 °F

Clear.


Feels Like: 92 °F
Forecast: 96 / 79 °F
Wind: 8 mph from South

Location: Lambert-St. Louis International Airport

Current Time: Jul 20, 2019 at 12:29:53 am

Latest Report: Jul 19, 2019 at 11:51 pm


Visibility: 10 mi

Pressure: 29.88 "Hg

Humidity: 68%

Dew Point: 73 °F

Location of St. LouisLocation

Past Weather in St. Louis — Graph

°F

St. Louis Temperature Yesterday

Maximum temperature yesterday: 96 °F (at 2:51 pm)
Minimum temperature yesterday: 80 °F (at 5:51 am)
Average temperature yesterday: 89 °F

High & Low Weather Summary for the Past Weeks

 TemperatureHumidityPressure
High96 °F (Jul 19, 2:51 pm)94% (Jul 15, 8:51 pm)30.11 "Hg (Jul 15, 8:51 pm)
Low70 °F (Jul 13, 5:51 am)36% (Jul 12, 3:51 pm)29.80 "Hg (Jul 18, 5:51 pm)
Average81 °F69%29.94 "Hg
* Reported Jul 4 11:04 pm — Jul 19 10:51 pm, St. Louis. Weather by CustomWeather, © 2019

Note: Actual official high and low records may vary slightly from our data, if they occured in-between our weather recording intervals... More about our weather records

Advertising

St. Louis Weather History for the Previous 24 Hours

Scroll right to see more
 ConditionsComfort  
Time TempWeatherWind HumidityBarometerVisibility
10:51 pm
Fri, Jul 19
86 °FClear.8 mph65%29.85 "Hg10 mi
9:51 pm88 °FClear.12 mph63%29.83 "Hg10 mi
8:51 pm89 °FClear.13 mph59%29.82 "Hg10 mi
7:51 pm91 °FPassing clouds.12 mph56%29.83 "Hg10 mi
6:51 pm93 °FPassing clouds.16 mph50%29.83 "Hg10 mi
5:51 pm95 °FPassing clouds.16 mph47%29.83 "Hg10 mi
4:51 pm96 °FScattered clouds.14 mph46%29.85 "Hg10 mi
4:16 pm96 °FScattered clouds.14 mph46%29.90 "Hg10 mi
3:51 pm96 °FScattered clouds.13 mph47%29.86 "Hg10 mi
2:51 pm96 °FScattered clouds.8 mph49%29.87 "Hg10 mi
1:51 pm94 °FPassing clouds.9 mph52%29.89 "Hg10 mi
12:51 pm93 °FPassing clouds.14 mph54%29.90 "Hg10 mi
11:51 am91 °FPassing clouds.9 mph57%29.90 "Hg10 mi
10:51 am90 °FSunny.10 mph57%29.90 "Hg10 mi
9:51 am88 °FPassing clouds.12 mph61%29.91 "Hg10 mi
8:51 am86 °FPassing clouds.14 mph63%29.91 "Hg10 mi
7:51 am83 °FPassing clouds.10 mph72%29.90 "Hg10 mi
6:51 am81 °FPassing clouds.9 mph77%29.88 "Hg10 mi
5:51 am80 °FPassing clouds.8 mph79%29.87 "Hg10 mi
4:51 am81 °FClear.9 mph77%29.85 "Hg10 mi
3:51 am81 °FClear.10 mph79%29.85 "Hg10 mi
2:51 am83 °FClear.9 mph74%29.85 "Hg10 mi
1:51 am84 °FPassing clouds.14 mph72%29.84 "Hg10 mi
12:51 am85 °FPassing clouds.14 mph70%29.85 "Hg10 mi
Weather by CustomWeather, © 2019

See weather overview